Location: Newark
(52.7705°N, 1.2046°W)
Time: 15:20:36
(UTC+00:00)

ISS - Visible Passes

Search period start: 22 August 2019 00:00
Search period end: 01 September 2019 00:00
Orbit: 410 x 421 km, 51.6° (Epoch: 23 August)

Date Brightness Start Highest point End Pass type
(mag) Time Alt. Az. Time Alt. Az. Time Alt. Az.
29 Aug -1.3 04:23:52 10° S 04:25:59 16° SE 04:28:08 10° ESE visible
30 Aug -1.1 03:36:30 10° SSE 03:37:25 11° SE 03:38:21 10° ESE visible
31 Aug -2.3 04:21:48 10° SSW 04:24:44 28° SSE 04:27:40 10° E visible
